Simultaneous Nadir Overpasses (SNOs) Predictions

Prediction of SNOs between AQUA and NOAA-19 Satellite Orbit:

Table of predicted SNOs for the next 14.0 days since TLE Epoch: 9/4/2016
Index Date (AQUA) Time (AQUA) Lat,Lon (AQUA) SZA (AQUA ) Date (NOAA-19) Time (NOAA-19) Lat,Lon (NOAA-19) SZA (NOAA-19 ) Distance(km) Time Diff (sec)
1 09/05/2016 20:17:27 -80.90, 15.86 103.44 09/05/2016 20:17:43 -80.91, 15.70 103.43 2.91 16
2 09/08/2016 01:01:45 -80.92, -55.47 102.60 09/08/2016 01:00:44 -80.92, -55.54 102.57 1.17 61
3 09/08/2016 01:51:11 80.91, 112.38 77.38 09/08/2016 01:51:38 80.91, 112.33 77.38 0.79 27
4 09/10/2016 06:35:29 80.93, 40.98 78.24 09/10/2016 06:34:39 80.92, 41.09 78.24 2.36 50
5 09/10/2016 07:24:54 -80.89,-150.87 101.83 09/10/2016 07:25:43 -80.90,-150.86 101.85 1.01 49
6 09/12/2016 12:09:12 -80.92, 137.69 100.96 09/12/2016 12:08:44 -80.91, 137.81 100.97 2.11 28
7 09/12/2016 12:58:38 80.90, -54.47 79.02 09/12/2016 12:59:39 80.91, -54.58 79.01 1.96 61
8 09/14/2016 17:42:55 80.91,-125.63 79.86 09/14/2016 17:42:39 80.91,-125.50 79.85 2.26 16




NCC Satellite Simultaneous Nadir Overpasses (SNOs) Prediction Service
